GW0870 Weather Reports


time (UTC)temp
C
wind
direction
speed
KPH
gust
KPH
rain 1hr
cm
rain 24hr
cm
rain mn
cm
humidity
%
barometer
mb
20260901103050 20 0 0.0 0.0 0.00 0.00 0.00 94 1018.9
20260901101614 21 0 0.0 0.0 0.00 0.00 0.00 94 1018.9
20260901100106 21 0 0.0 0.0 0.00 0.00 0.00 95 1018.9
20260901094549 21 0 0.0 0.0 0.00 0.00 0.00 94 1018.9
20260901093057 21 0 0.0 0.0 0.00 0.00 0.00 95 1018.8
20260901091555 21 0 0.0 0.0 0.00 0.00 0.00 94 1018.8
20260901090100 21 0 0.0 1.6 0.00 0.00 0.00 94 1018.9
20260901084549 21 0 0.0 0.0 0.00 0.00 0.00 94 1019.0
20260901083056 21 0 0.0 0.0 0.00 0.00 0.00 94 1019.0
20260901081602 21 0 0.0 0.0 0.00 0.00 0.00 94 1019.1
20260901080053 21 0 0.0 0.0 0.00 0.00 0.00 94 1019.2
20260901074549 21 0 0.0 0.0 0.00 0.00 0.00 94 1019.2
20260901073103 22 0 0.0 0.0 0.00 0.00 0.00 94 1019.3
20260901071601 22 0 0.0 0.0 0.00 0.00 0.00 94 1019.4
20260901070103 22 0 0.0 0.0 0.00 0.00 0.00 94 1019.5
20260901064606 22 0 0.0 0.0 0.00 0.00 0.00 94 1019.6
20260901063052 22 0 0.0 0.0 0.00 0.00 0.00 94 1019.6
20260901061600 22 0 0.0 0.0 0.00 0.00 0.00 94 1019.6
20260901060100 22 0 0.0 0.0 0.00 0.00 0.00 94 1019.7
20260901054553 22 0 0.0 0.0 0.00 0.00 0.00 94 1019.7
20260901053107 22 0 0.0 0.0 0.00 0.00 0.00 93 1019.6
20260901051607 22 0 0.0 0.0 0.00 0.00 0.00 93 1019.7
20260901050055 22 0 0.0 0.0 0.00 0.00 0.00 93 1019.8
20260901044615 22 0 0.0 0.0 0.00 0.00 0.00 93 1019.8
20260901043053 22 0 0.0 0.0 0.00 0.00 0.00 93 1019.7
20260901041559 22 0 0.0 0.0 0.00 0.00 0.00 93 1019.7
20260901040059 23 0 0.0 0.0 0.00 0.00 0.00 93 1019.7
20260901034601 23 0 0.0 0.0 0.00 0.00 0.00 92 1019.6
20260901033051 23 0 0.0 0.0 0.00 0.00 0.00 92 1019.6
20260901031558 23 0 0.0 0.0 0.00 0.00 0.00 92 1019.6
20260901030055 23 0 0.0 1.6 0.00 0.00 0.00 92 1019.6
20260901024557 23 0 0.0 0.0 0.00 0.00 0.00 91 1019.6
20260901023050 23 0 0.0 0.0 0.00 0.00 0.00 92 1019.8
20260901021616 23 0 0.0 0.0 0.00 0.00 0.00 91 1019.7
20260901020111 23 0 0.0 0.0 0.00 0.00 0.00 91 1019.6
20260901014557 24 0 0.0 0.0 0.00 0.00 0.00 90 1019.3
20260901013106 24 0 0.0 0.0 0.00 0.00 0.00 90 1019.2
20260901011556 25 0 0.0 0.0 0.00 0.00 0.00 89 1019.1
20260901010101 25 0 0.0 0.0 0.00 0.00 0.00 88 1018.8
20260901004603 25 0 0.0 0.0 0.00 0.00 0.00 87 1018.7
20260901003054 26 0 0.0 0.0 0.00 0.00 0.00 86 1018.6
20260901001558 26 0 0.0 0.0 0.00 0.00 0.00 85 1018.5
20260901000059 27 0 0.0 0.0 0.00 0.00 0.00 82 1018.3
20260831234603 27 0 0.0 0.0 0.00 0.00 0.00 81 1018.2
20260831233052 28 0 0.0 0.0 0.00 0.00 0.00 79 1018.3
20260831231548 29 0 0.0 0.0 0.00 0.00 0.00 76 1018.2
20260831230057 30 0 0.0 0.0 0.00 0.00 0.00 73 1018.4
20260831224554 30 0 0.0 0.0 0.00 0.00 0.00 69 1018.5
20260831223055 32 0 0.0 0.0 0.00 0.00 0.00 63 1018.6
20260831221554 33 0 0.0 0.0 0.00 0.00 0.00 54 1018.6
20260831220110 33 0 0.0 1.6 0.00 0.00 0.00 55 1018.6
20260831214556 35 147 0.0 3.2 0.00 0.00 0.00 53 1018.6
20260831213054 35 0 0.0 3.2 0.00 0.00 0.00 48 1018.8
20260831211605 34 0 1.6 4.8 0.00 0.00 0.00 49 1018.7
20260831210053 34 50 0.0 1.6 0.00 0.00 0.00 53 1018.7
20260831204558 34 0 0.0 3.2 0.00 0.00 0.00 51 1018.7
20260831203053 33 267 1.6 6.4 0.00 0.00 0.00 50 1018.9
20260831201556 33 192 1.6 4.8 0.00 0.00 0.00 48 1019.1
20260831200056 32 0 0.0 4.8 0.00 0.00 0.00 51 1019.2
20260831194629 32 0 0.0 1.6 0.00 0.00 0.00 54 1019.5
20260831193102 34 0 0.0 1.6 0.00 0.00 0.00 52 1019.6
20260831191558 33 0 0.0 3.2 0.00 0.00 0.00 54 1019.5
20260831190113 33 223 0.0 4.8 0.00 0.00 0.00 52 1019.6
20260831184613 34 140 1.6 4.8 0.00 0.00 0.00 51 1019.8
20260831183107 33 47 1.6 8.0 0.00 0.00 0.00 53 1020.0
20260831181556 33 0 0.0 6.4 0.00 0.00 0.00 52 1020.2
20260831180054 32 110 1.6 4.8 0.00 0.00 0.00 57 1020.4
20260831174605 33 0 0.0 8.0 0.00 0.00 0.00 61 1020.4
20260831173105 32 0 0.0 4.8 0.00 0.00 0.00 60 1020.5
20260831171555 32 0 0.0 6.4 0.00 0.00 0.00 59 1020.4
20260831170058 32 220 0.0 3.2 0.00 0.00 0.00 63 1020.7
20260831164554 32 130 0.0 3.2 0.00 0.00 0.00 63 1020.7
20260831163055 32 306 0.0 4.8 0.00 0.00 0.00 64 1020.8
20260831161606 30 281 0.0 3.2 0.00 0.00 0.00 67 1020.9
20260831160057 30 109 1.6 4.8 0.00 0.00 0.00 66 1020.9
20260831154621 30 0 0.0 4.8 0.00 0.00 0.00 69 1021.0
20260831153054 29 0 3.2 8.0 0.00 0.00 0.00 74 1021.0
20260831151600 29 0 0.0 4.8 0.00 0.00 0.00 72 1021.2
20260831150058 29 0 0.0 3.2 0.00 0.00 0.00 73 1021.3
20260831144609 28 159 0.0 3.2 0.00 0.00 0.00 76 1021.3
20260831143053 27 219 0.0 3.2 0.00 0.00 0.00 79 1021.3
20260831141553 27 0 1.6 6.4 0.00 0.00 0.00 81 1021.1
20260831140057 27 254 0.0 4.8 0.00 0.00 0.00 83 1021.1
20260831134600 26 0 1.6 8.0 0.00 0.00 0.00 85 1021.1
20260831133107 25 209 1.6 6.4 0.00 0.00 0.00 89 1021.0
20260831131600 23 214 1.6 4.8 0.00 0.00 0.00 94 1021.0
20260831130116 22 0 0.0 1.6 0.00 0.00 0.00 96 1021.0
20260831124555 21 0 0.0 0.0 0.00 0.00 0.00 97 1021.0
20260831123103 20 0 0.0 0.0 0.00 0.00 0.00 96 1021.0
20260831121601 20 0 0.0 1.6 0.00 0.00 0.00 96 1021.1
20260831120057 19 0 0.0 0.0 0.00 0.00 0.00 96 1021.0
20260831114556 18 0 0.0 0.0 0.00 0.00 0.00 95 1021.1
20260831113052 18 0 0.0 0.0 0.00 0.00 0.00 95 1021.0
20260831111612 18 0 0.0 0.0 0.00 0.00 0.00 95 1021.0
20260831110134 18 0 0.0 0.0 0.00 0.00 0.00 95 1020.9
20260831104551 18 0 0.0 0.0 0.00 0.00 0.00 95 1021.0